Flag for U.S.A. Weather past 2 weeks in Laredo, Texas, U.S.A.

Now
76 °F

Passing clouds.


Feels Like: 76 °F
Forecast: 75 / 92 °F
Wind: No wind

Location: Laredo International Airport

Current Time: Sep 16, 2014 at 5:00:02 AM

Latest Report: Sep 16, 2014 at 3:56 AM


Visibility: 10 mi

Pressure: 30.03 "Hg

Humidity: 88%

Dew point: 72 °F

Location of LaredoLocation

Historic Weather in Laredo — Graph

°F

Laredo temperature yesterday

Maximum temperature yesterday: 89 °F (at 4:56 PM)
Minimum temperature yesterday: 71 °F (at 12:56 AM)
Average temperature yesterday: 79 °F

Past Weeks' High & Low Weather Summary

 TemperatureHumidityPressure
High103 °F (Sep 1, 3:56 PM)100% (Sep 4, 1:56 AM)30.17 "Hg (Sep 4, 1:56 AM)
Low66 °F (Sep 14, 1:56 AM)28% (Sep 1, 3:56 PM)29.73 "Hg (Sep 10, 5:56 PM)
Average83 °F72%29.95 "Hg
* Reported Sep 1 3:56 AM — Sep 16 3:56 AM, Laredo, Weather by CustomWeather, © 2014

Note: Actual official high and low records may vary slightly from our data, if they occured in-between our weather recording intervals... More about our weather records

Advertising

Laredo weather history for previous 24 hours

 ConditionsComfort  
Time TempWeatherWind HumidityBarometerVisibility
3:56 AM
Sep 16
76 °FPassing clouds.No wind88%30.03 "Hg10 mi
2:56 AM76 °FPassing clouds.No wind88%30.04 "Hg10 mi
1:56 AM77 °FClear.No wind82%30.05 "Hg10 mi
12:56 AM77 °FClear.No wind85%30.04 "Hg10 mi
11:56 PM
Sep 15
79 °FClear.6 mph74%30.05 "Hg10 mi
10:56 PM79 °FClear.7 mph74%30.05 "Hg10 mi
9:56 PM80 °FClear.6 mph72%30.04 "Hg10 mi
8:56 PM81 °FPassing clouds.No wind71%30.02 "Hg10 mi
7:56 PM83 °FSunny.5 mph65%30.01 "Hg10 mi
6:56 PM87 °FBroken clouds.6 mph53%30.00 "Hg10 mi
5:56 PM88 °FPassing clouds.3 mph52%30.00 "Hg10 mi
4:56 PM89 °FSunny.No wind50%30.00 "Hg10 mi
3:56 PM86 °FPartly sunny.No wind55%30.02 "Hg10 mi
2:56 PM86 °FBroken clouds.5 mph57%30.04 "Hg10 mi
1:56 PM85 °FPartly sunny.3 mph59%30.06 "Hg10 mi
12:56 PM84 °FPartly sunny.3 mph63%30.08 "Hg10 mi
11:56 AM81 °FOvercast.No wind69%30.10 "Hg10 mi
10:56 AM79 °FScattered clouds.No wind74%30.11 "Hg10 mi
9:56 AM75 °FLow clouds.No wind88%30.12 "Hg10 mi
8:56 AM74 °FFog.No wind94%30.11 "Hg6 mi
7:56 AM72 °FFog.No wind100%30.10 "Hg6 mi
6:56 AM72 °FMostly cloudy.No wind100%30.09 "Hg8 mi
5:56 AM72 °FOvercast.5 mph96%30.08 "Hg10 mi
Weather by CustomWeather, © 2014

See weather overviewHow to use our weather pages